Hurghada, Egypt

3:26 AM EET on September 23, 2017 (GMT +0200)
Hurghada

Weather History for HEGN - January, 2014

Change the Weather History Date:

Saturday, January 18, 2014

  Actual Average Record
Temperature  
Mean Temperature 66 °F -  
Max Temperature 77 °F 69 °F 82 °F (2013)
Min Temperature 55 °F 53 °F 51 °F (2002)
Cooling Degree Days 1    
Growing Degree Days 16 (Base 50)    
Moisture  
Dew Point 52 °F    
Average Humidity 65    
Maximum Humidity 88    
Minimum Humidity 31    
Precipitation  
Precipitation 0.00 in - - ()
Sea Level Pressure  
Sea Level Pressure 30.15 in    
Wind  
Wind Speed 11 mph ()    
Max Wind Speed 17 mph    
Max Gust Speed -    
Visibility 6.0 miles    
Events      
Averages and records for this station are not official NWS values.
T = Trace of Precipitation, MM = Missing Value Source: Averaged Metar Reports

Daily Weather History Graph

Daily Weather History Graph

Search for Another Location

Airport or City:

Trip Planner

Search our weather history database for the weather conditions in past years. The results will help you decide how hot, cold, wet, or windy it might be!

Date:

Astronomy

Jan. 18, 2014 Rise Set
Actual Time 6:35 AM EET 5:15 PM EET
Civil Twilight 6:10 AM EET 5:40 PM EET
Nautical Twilight 5:42 AM EET 6:08 PM EET
Astronomical Twilight 5:14 AM EET 6:36 PM EET
Moon 7:21 PM EET (1/18) 7:39 AM EET (1/18)
Length of Visible Light 11h 29m
Length of Day
10h 39m
Waning Gibbous, 96% of the Moon is Illuminated
Jan 18
Waning Gibbous
Jan 24
Last Quarter
Jan 30
New
Feb 6
First Quarter
Feb 15
Full

Hourly Weather History & Observations

Time (EET) Temp. Dew Point Humidity Pressure Visibility Wind Dir Wind Speed Gust Speed Precip Events Conditions
12:00 AM 59.0 °F 50.0 °F 72% 30.09 in - NW 11.5 mph - N/A   Clear
1:00 AM 60.8 °F 51.8 °F 72% 30.12 in - NW 11.5 mph - N/A   Clear
2:00 AM 61 °F 51 °F 60% 30.13 in 6 mi NW 13.8 mph - -  
2:00 AM 60.8 °F 50.0 °F 68% 30.12 in - NW 13.8 mph - N/A   Clear
3:00 AM 60.8 °F 50.0 °F 68% 30.12 in - NW 11.5 mph - N/A   Clear
4:00 AM 59.0 °F 51.8 °F 77% 30.12 in - WNW 13.8 mph - N/A   Clear
5:00 AM 58 °F 52 °F 74% 30.15 in 6 mi WNW 13.8 mph - -  
5:00 AM 57.2 °F 51.8 °F 82% 30.12 in - WNW 13.8 mph - N/A   Clear
6:00 AM 57.2 °F 53.6 °F 88% 30.15 in - WNW 11.5 mph - N/A   Clear
7:00 AM 55.4 °F 51.8 °F 88% 30.15 in - WNW 10.4 mph - N/A   Clear
8:00 AM 59 °F 52 °F 72% 30.19 in 6 mi WNW 13.8 mph - -  
8:00 AM 59.0 °F 51.8 °F 77% 30.18 in - WNW 13.8 mph - N/A   Clear
9:00 AM 64.4 °F 50.0 °F 59% 30.18 in - NW 12.7 mph - N/A   Clear
10:00 AM 66.2 °F 51.8 °F 60% 30.18 in - NNW 12.7 mph - N/A   Clear
11:00 AM 69 °F 53 °F 47% 30.18 in 6 mi NNW 13.8 mph - -  
11:00 AM 69.8 °F 53.6 °F 56% 30.18 in - NNW 13.8 mph - N/A   Clear
12:00 PM 71.6 °F 53.6 °F 53% 30.12 in - North 13.8 mph - N/A   Clear
1:00 PM 75.2 °F 53.6 °F 47% 30.12 in - North 17.3 mph - N/A   Clear
2:00 PM 76 °F 51 °F 31% 30.12 in 6 mi North 11.5 mph - -  
2:00 PM 75.2 °F 51.8 °F 44% 30.09 in - North 11.5 mph - N/A   Clear
3:00 PM 77.0 °F 53.6 °F 44% 30.12 in - North 15.0 mph - N/A   Clear
4:00 PM 75.2 °F 53.6 °F 47% 30.12 in - North 8.1 mph - N/A   Clear
5:00 PM 71.6 °F 53.6 °F 53% 30.12 in - North 8.1 mph - N/A   Clear
6:00 PM 68.0 °F 55.4 °F 64% 30.15 in - NNW 5.8 mph - N/A   Clear
7:00 PM 64.4 °F 55.4 °F 73% 30.15 in - WNW 9.2 mph - N/A   Clear
8:00 PM 63 °F 54 °F 66% 30.19 in 6 mi WNW 11.5 mph - -  
8:00 PM 62.6 °F 55.4 °F 77% 30.18 in - WNW 11.5 mph - N/A   Clear
9:00 PM 62.6 °F 53.6 °F 72% 30.18 in - NW 12.7 mph - N/A   Clear
10:00 PM 60.8 °F 51.8 °F 72% 30.18 in - NW 8.1 mph - N/A   Clear
11:00 PM 58 °F 50 °F 68% 30.20 in 6 mi NW 6.9 mph - -  
11:00 PM 59.0 °F 50.0 °F 72% 30.18 in - NW 6.9 mph - N/A   Clear